Location: Balaclava NSW 2575, Australia
(34.4510°S, 150.4953°E)
Time: 12:23:51
(UTC+10:00)

XW-2C - Pass Details

Date: 03 August 2021
Orbit: 506 x 524 km, 97.5° (Epoch: 18 September)

Event Time Altitude Azimuth Distance (km) Brightness Sun altitude
Rises 05:47:23 0° 350° (N) 2,647 ? -13.2°
Reaches altitude 10° 05:49:40 10° 338° (NNW) 1,768 ? -12.7°
Maximum altitude 05:53:01 29° 277° (W) 1,003 ? -12.1°
Drops below altitude 10° 05:56:24 10° 216° (SW) 1,791 ? -11.4°
Enters shadow 05:56:41 - 214° (SW) 1,894 ? -11.3°
